This is the latest recevied weather packets stored in our database for station/object NR6G-5. If no packets are shown the sender has not sent any weather packets the latest 1 day(s).
| Time | Temp. | Humidity | Pressure | Rain* | Wind** | Luminosity | Snow |
|---|---|---|---|---|---|---|---|
| 1778089471 | 18.89° C | 68% | 1019.3 hPa | 0 mm | 0.89 m/s, 207° | - | - |
| 1778089171 | 18.33° C | 68% | 1019.4 hPa | 0 mm | 1.34 m/s, 183° | - | - |
| 1778088870 | 18.33° C | 68% | 1019.4 hPa | 0 mm | 2.68 m/s, 207° | - | - |
| 1778088570 | 18.33° C | 68% | 1019.4 hPa | 0 mm | 1.34 m/s, 211° | - | - |
| 1778088270 | 18.33° C | 68% | 1019.4 hPa | 0 mm | 1.34 m/s, 234° | - | - |
| 1778087970 | 17.78° C | 70% | 1019.5 hPa | 0 mm | 2.24 m/s, 167° | - | - |
| 1778087670 | 17.78° C | 70% | 1019.5 hPa | 0 mm | 0.45 m/s, 194° | - | - |
| 1778087372 | 17.22° C | 70% | 1019.6 hPa | 0 mm | 0.89 m/s, 200° | - | - |
| 1778087070 | 17.22° C | 70% | 1019.6 hPa | 0 mm | 2.24 m/s, 196° | - | - |
| 1778086770 | 17.22° C | 71% | 1019.6 hPa | 0 mm | 1.79 m/s, 197° | - | - |
| 1778086471 | 17.22° C | 72% | 1019.6 hPa | 0 mm | 1.79 m/s, 196° | - | - |
| 1778086170 | 17.22° C | 72% | 1019.6 hPa | 0 mm | 2.68 m/s, 201° | - | - |
| 1778085872 | 16.67° C | 72% | 1019.6 hPa | 0 mm | 1.34 m/s, 202° | - | - |
| 1778085571 | 16.67° C | 73% | 1019.6 hPa | 0 mm | 2.68 m/s, 195° | - | - |
| 1778085270 | 16.67° C | 72% | 1019.5 hPa | 0 mm | 0.89 m/s, 166° | - | - |
| 1778084971 | 16.67° C | 73% | 1019.6 hPa | 0 mm | 0.89 m/s, 191° | - | - |
| 1778084670 | 16.67° C | 73% | 1019.6 hPa | 0 mm | 0.89 m/s, 191° | - | - |
| 1778084370 | 16.67° C | 72% | 1019.6 hPa | 0 mm | 1.79 m/s, 185° | - | - |
| 1778084070 | 16.67° C | 72% | 1019.6 hPa | 0 mm | 2.68 m/s, 203° | - | - |
| 1778083756 | 16.67° C | 72% | 1019.6 hPa | 0 mm | 1.34 m/s, 149° | - | - |
| 1778083155 | 16.11° C | 73% | 1019.7 hPa | 0 mm | 1.79 m/s, 160° | - | - |
| 1778082858 | 16.11° C | 74% | 1019.7 hPa | 0 mm | 1.79 m/s, 150° | - | - |
| 1778082557 | 16.11° C | 74% | 1019.7 hPa | 0 mm | 1.79 m/s, 185° | - | - |
| 1778082255 | 15.56° C | 74% | 1019.8 hPa | 0 mm | 1.34 m/s, 162° | - | - |
| 1778081956 | 15.56° C | 75% | 1019.8 hPa | 0 mm | 1.79 m/s, 169° | - | - |
* Rain latest hour (hover to see other rain measurements)
** Current wind speed in m/s (hover to see current wind gust speed)